Tracking 29782 objects as of 13-Oct-2024
HD Live streaming from Space Station
objects crossing your sky now

ISTANBUL-1

Track ISTANBUL-1 now!
10-day predictions
ISTANBUL-1 is classified as:


NORAD ID: 56231
Int'l Code: 2023-084BQ
Perigee: 465.7 km
Apogee: 479.6 km
Inclination: 97.5 °
Period: 93.9 minutes
Semi major axis: 6843 km
RCS: Unknown
Launch date: June 12, 2023
Source: (TBD)
Launch site: AIR FORCE WESTERN TEST RANGE (AFWTR)

Uplink (MHz):
Downlink (MHz):
Beacon (MHz):
Mode:
Call sign:
Status: Unknown

Your satellite tracking list
Your tracking list is empty




NASA's NSSDC Master Catalog

Two Line Element Set (TLE):
1 56231U 23084BQ  24286.44443604  .00049728  00000-0  15295-2 0  9999
2 56231  97.5476  46.8197 0010194 332.6728  27.3977 15.33460661 74054
Source of the keplerian elements: AFSPC